contact:dominique.lefevre@mio.osupytheas.fr, maurice.libes@osupytheas.fr, didier.mallarino@osupytheas.fr
Project:EMSO http://www.emso-fr.org/EMSO-France
Depth: 2436.0 m
Title:EMSO Ligure Ouest : Data MII capteur AQUADOPP
Date,Latitude,Longitude,X_East,Y_North,Z_Up,Amplitude_X,Amplitude_Y,Amplitude_Z,Batterie,SoundSpeed,Heading,Pitch,Roll,Pressure,TIS,Speed,Direction
, degrees North, degrees East, m.s-1, m.s-1,m.s-1, 1, 1, 1, Volt, m.s-1, degree, degree, degree, dbar, degree_C, m.s-1, degree
2020-03-30T00:04:03,42.805,6.029,0.042,0.015,-0.02,104.0,111.0,101.0,13.4,1505.2,326.4,-0.8,1.8,2470.393,13.3,0.044,70.4
2020-03-30T00:07:03,42.805,6.029,0.02,0.007,-0.026,103.0,111.0,100.0,13.4,1505.3,325.4,-0.8,1.8,2470.348,13.31,0.021,70.7
2020-03-30T00:10:03,42.805,6.029,0.028,0.016,-0.031,103.0,110.0,101.0,13.3,1505.3,326.8,-0.7,1.9,2470.385,13.31,0.032,60.3
2020-03-30T00:13:03,42.805,6.029,0.029,0.032,-0.034,104.0,112.0,101.0,13.4,1505.3,327.3,-0.7,1.8,2470.338,13.32,0.043,42.2
2020-03-30T00:16:03,42.805,6.029,0.018,0.016,-0.032,105.0,113.0,101.0,13.3,1505.3,325.6,-0.7,1.8,2470.388,13.32,0.024,48.4
2020-03-30T00:19:03,42.805,6.029,0.011,0.023,-0.04,103.0,114.0,102.0,13.4,1505.3,323.7,-0.7,1.8,2470.358,13.32,0.025,25.6
2020-03-30T00:22:03,42.805,6.029,0.025,0.004,-0.03,104.0,114.0,101.0,13.4,1505.3,323.5,-0.7,1.8,2470.364,13.32,0.025,80.9
2020-03-30T00:25:03,42.805,6.029,0.055,0.028,-0.036,104.0,113.0,101.0,13.4,1505.3,328.5,-0.7,1.9,2470.37,13.32,0.061,63.0
2020-03-30T00:28:03,42.805,6.029,0.04,0.012,-0.047,103.0,114.0,102.0,13.4,1505.3,326.9,-0.7,1.8,2470.356,13.32,0.041,73.3
2020-03-30T00:31:03,42.805,6.029,0.021,0.028,-0.042,105.0,114.0,100.0,13.4,1505.3,324.5,-0.7,1.8,2470.348,13.32,0.035,36.9
2020-03-30T00:34:03,42.805,6.029,0.038,0.032,-0.016,104.0,113.0,102.0,13.4,1505.3,326.6,-0.7,1.9,2470.331,13.32,0.049,49.9
2020-03-30T00:37:03,42.805,6.029,0.03,0.017,0.0,104.0,112.0,102.0,13.4,1505.3,324.0,-0.7,1.8,2470.326,13.32,0.034,60.5
2020-03-30T00:40:03,42.805,6.029,0.034,0.015,-0.024,105.0,113.0,101.0,13.3,1505.3,327.4,-0.7,1.8,2470.297,13.32,0.037,66.2
2020-03-30T00:43:03,42.805,6.029,0.036,0.021,-0.004,105.0,114.0,102.0,13.3,1505.3,327.9,-0.7,1.8,2470.328,13.32,0.041,59.7
2020-03-30T00:46:03,42.805,6.029,0.043,0.008,-0.027,104.0,115.0,102.0,13.4,1505.3,326.5,-0.7,1.8,2470.31,13.32,0.043,79.5
2020-03-30T00:49:03,42.805,6.029,0.041,0.037,-0.004,104.0,117.0,100.0,13.4,1505.3,323.4,-0.7,1.8,2470.305,13.32,0.055,47.9
2020-03-30T00:52:03,42.805,6.029,0.043,-0.004,-0.03,104.0,113.0,101.0,13.4,1505.3,326.8,-0.7,1.8,2470.319,13.32,0.043,95.3
2020-03-30T00:55:03,42.805,6.029,0.029,0.006,-0.03,103.0,114.0,100.0,13.4,1505.3,326.8,-0.7,1.8,2470.295,13.32,0.029,78.3
2020-03-30T00:58:03,42.805,6.029,0.036,0.008,-0.007,104.0,113.0,100.0,13.4,1505.3,325.8,-0.7,1.8,2470.307,13.32,0.036,77.5
2020-03-30T01:04:03,42.805,6.029,0.019,0.0,-0.041,105.0,112.0,102.0,13.4,1505.2,324.6,-0.8,1.8,2470.332,13.3,0.019,90.0
2020-03-30T01:07:03,42.805,6.029,0.041,0.001,-0.05,103.0,111.0,102.0,13.4,1505.3,328.7,-0.7,1.9,2470.328,13.31,0.041,88.6
2020-03-30T01:10:03,42.805,6.029,0.03,0.016,-0.023,104.0,114.0,101.0,13.3,1505.3,325.9,-0.7,1.8,2470.36,13.32,0.034,61.9
2020-03-30T01:13:03,42.805,6.029,0.041,0.008,-0.073,105.0,112.0,100.0,13.4,1505.3,328.4,-0.7,1.8,2470.365,13.32,0.041,79.0
2020-03-30T01:16:03,42.805,6.029,0.038,0.019,-0.02,103.0,113.0,101.0,13.3,1505.3,325.5,-0.7,1.8,2470.339,13.32,0.042,63.4
2020-03-30T01:19:03,42.805,6.029,0.042,0.023,0.016,103.0,114.0,100.0,13.4,1505.3,328.0,-0.7,1.8,2470.375,13.32,0.047,61.3
2020-03-30T01:22:03,42.805,6.029,0.053,0.02,-0.039,105.0,114.0,100.0,13.4,1505.3,326.3,-0.7,1.8,2470.31,13.32,0.056,69.3
2020-03-30T01:25:03,42.805,6.029,0.046,0.01,0.036,104.0,116.0,101.0,13.4,1505.3,328.1,-0.7,1.8,2470.289,13.32,0.047,77.7
2020-03-30T01:28:03,42.805,6.029,0.028,0.014,-0.015,104.0,115.0,102.0,13.4,1505.3,324.5,-0.7,1.8,2470.306,13.32,0.031,63.4
2020-03-30T01:31:03,42.805,6.029,0.044,0.028,-0.003,104.0,114.0,102.0,13.4,1505.3,324.4,-0.7,1.8,2470.301,13.32,0.052,57.5
2020-03-30T01:34:03,42.805,6.029,0.035,-0.003,-0.035,104.0,115.0,101.0,13.4,1505.3,327.5,-0.7,1.9,2470.298,13.32,0.035,94.9
2020-03-30T01:37:03,42.805,6.029,0.031,0.024,-0.028,103.0,115.0,100.0,13.3,1505.3,323.7,-0.7,1.8,2470.284,13.32,0.039,52.3
2020-03-30T01:40:03,42.805,6.029,0.041,0.024,-0.029,105.0,112.0,102.0,13.4,1505.3,325.6,-0.7,1.8,2470.266,13.32,0.047,59.7
2020-03-30T01:43:03,42.805,6.029,0.036,0.007,-0.044,104.0,114.0,101.0,13.3,1505.3,325.4,-0.7,1.8,2470.314,13.32,0.036,79.0
2020-03-30T01:46:03,42.805,6.029,0.036,0.014,-0.029,106.0,113.0,100.0,13.3,1505.3,325.1,-0.7,1.8,2470.303,13.32,0.038,68.8
2020-03-30T01:49:03,42.805,6.029,0.052,0.001,-0.025,104.0,114.0,101.0,13.4,1505.3,325.9,-0.7,1.8,2470.339,13.32,0.052,88.9
2020-03-30T01:52:03,42.805,6.029,0.051,0.01,-0.015,102.0,114.0,102.0,13.4,1505.3,326.5,-0.7,1.8,2470.305,13.32,0.051,78.9
2020-03-30T01:55:03,42.805,6.029,0.028,0.019,-0.041,104.0,113.0,101.0,13.4,1505.3,324.5,-0.7,1.8,2470.305,13.32,0.033,55.8
2020-03-30T01:58:03,42.805,6.029,0.074,0.026,-0.008,104.0,115.0,101.0,13.4,1505.3,326.2,-0.7,1.8,2470.326,13.32,0.078,70.6
2020-03-30T02:04:03,42.805,6.029,0.032,0.021,-0.034,103.0,111.0,101.0,13.3,1505.2,327.2,-0.7,1.8,2470.295,13.3,0.038,56.7
2020-03-30T02:07:03,42.805,6.029,0.02,0.029,-0.021,104.0,114.0,102.0,13.4,1505.3,327.9,-0.7,1.8,2470.329,13.31,0.035,34.6
2020-03-30T02:10:03,42.805,6.029,0.025,0.018,-0.025,103.0,112.0,102.0,13.3,1505.3,324.8,-0.7,1.8,2470.31,13.31,0.03,54.2
2020-03-30T02:13:03,42.805,6.029,0.041,0.001,-0.031,103.0,114.0,101.0,13.4,1505.3,325.4,-0.7,1.8,2470.311,13.32,0.041,88.6
2020-03-30T02:16:03,42.805,6.029,0.048,0.007,0.012,104.0,113.0,101.0,13.3,1505.3,324.8,-0.7,1.9,2470.305,13.32,0.048,81.7
2020-03-30T02:19:03,42.805,6.029,0.039,0.021,-0.034,103.0,115.0,102.0,13.4,1505.3,327.2,-0.7,1.8,2470.283,13.32,0.044,61.7
2020-03-30T02:22:03,42.805,6.029,0.039,0.027,-0.02,105.0,116.0,101.0,13.4,1505.3,324.3,-0.7,1.8,2470.301,13.32,0.047,55.3
2020-03-30T02:25:03,42.805,6.029,0.025,0.005,-0.024,104.0,117.0,101.0,13.3,1505.3,324.5,-0.7,1.8,2470.286,13.32,0.025,78.7
2020-03-30T02:28:03,42.805,6.029,0.024,0.033,-0.017,103.0,115.0,102.0,13.4,1505.3,326.6,-0.7,1.8,2470.29,13.32,0.04,36.0
2020-03-30T02:31:03,42.805,6.029,0.049,0.033,-0.031,104.0,116.0,101.0,13.4,1505.3,323.3,-0.7,1.8,2470.298,13.32,0.059,56.0
2020-03-30T02:34:03,42.805,6.029,0.052,0.005,-0.01,102.0,117.0,102.0,13.4,1505.3,326.3,-0.7,1.8,2470.283,13.32,0.052,84.5
2020-03-30T02:37:03,42.805,6.029,0.056,0.031,-0.016,104.0,117.0,101.0,13.4,1505.3,326.4,-0.7,1.8,2470.31,13.32,0.064,61.0
2020-03-30T02:40:03,42.805,6.029,0.042,0.017,-0.023,104.0,115.0,101.0,13.4,1505.3,322.9,-0.7,1.9,2470.27,13.32,0.045,68.0
2020-03-30T02:43:03,42.805,6.029,0.055,0.009,-0.001,104.0,119.0,101.0,13.3,1505.3,326.2,-0.7,1.8,2470.283,13.32,0.055,80.7
2020-03-30T02:46:03,42.805,6.029,0.043,0.017,-0.001,105.0,118.0,101.0,13.3,1505.3,327.9,-0.7,1.8,2470.282,13.32,0.046,68.4
2020-03-30T02:49:03,42.805,6.029,0.039,0.003,-0.065,104.0,114.0,101.0,13.4,1505.3,327.2,-0.7,1.9,2470.273,13.32,0.039,85.6
2020-03-30T02:52:03,42.805,6.029,0.034,-0.001,-0.053,104.0,114.0,101.0,13.4,1505.3,323.7,-0.7,1.8,2470.266,13.32,0.034,91.7
2020-03-30T02:55:03,42.805,6.029,0.038,0.026,-0.036,104.0,117.0,102.0,13.3,1505.3,323.0,-0.7,1.9,2470.254,13.32,0.046,55.6
2020-03-30T02:58:03,42.805,6.029,0.045,0.035,0.025,104.0,117.0,101.0,13.4,1505.3,323.9,-0.7,1.8,2470.256,13.32,0.057,52.1
2020-03-30T03:04:03,42.805,6.029,0.029,0.001,-0.012,104.0,115.0,102.0,13.4,1505.2,325.3,-0.8,1.8,2470.303,13.3,0.029,88.0
2020-03-30T03:07:03,42.805,6.029,0.033,0.01,-0.021,105.0,114.0,101.0,13.4,1505.3,323.6,-0.7,1.8,2470.251,13.31,0.034,73.1
2020-03-30T03:10:03,42.805,6.029,0.051,0.013,-0.022,105.0,117.0,100.0,13.4,1505.3,326.0,-0.7,1.8,2470.284,13.31,0.052,75.7
2020-03-30T03:13:03,42.805,6.029,0.063,0.025,-0.009,105.0,114.0,102.0,13.3,1505.3,328.4,-0.7,1.8,2470.314,13.32,0.067,68.4
2020-03-30T03:16:03,42.805,6.029,0.033,0.004,-0.033,105.0,115.0,101.0,13.4,1505.3,327.2,-0.7,1.8,2470.298,13.32,0.033,83.1
2020-03-30T03:19:03,42.805,6.029,0.03,0.022,-0.013,104.0,115.0,102.0,13.4,1505.3,323.5,-0.7,1.8,2470.293,13.32,0.037,53.7
2020-03-30T03:22:03,42.805,6.029,0.037,0.019,-0.047,104.0,116.0,102.0,13.4,1505.3,323.0,-0.7,1.8,2470.253,13.32,0.041,62.8
2020-03-30T03:25:03,42.805,6.029,0.042,0.026,0.0,104.0,116.0,102.0,13.4,1505.3,326.6,-0.7,1.8,2470.292,13.32,0.049,58.2
2020-03-30T03:28:03,42.805,6.029,0.047,0.019,-0.001,106.0,117.0,101.0,13.3,1505.3,327.9,-0.7,1.9,2470.276,13.32,0.05,68.0
2020-03-30T03:31:03,42.805,6.029,0.038,0.02,-0.038,103.0,116.0,101.0,13.4,1505.3,324.5,-0.7,1.8,2470.279,13.32,0.042,62.2
2020-03-30T03:34:03,42.805,6.029,0.035,0.022,-0.03,105.0,115.0,102.0,13.4,1505.3,326.4,-0.7,1.8,2470.266,13.32,0.041,57.8
2020-03-30T03:37:03,42.805,6.029,0.026,0.013,-0.048,104.0,116.0,102.0,13.3,1505.3,323.0,-0.7,1.8,2470.259,13.32,0.029,63.4
2020-03-30T03:40:03,42.805,6.029,0.044,0.018,-0.013,103.0,115.0,102.0,13.3,1505.3,326.3,-0.7,1.8,2470.287,13.32,0.047,67.8
2020-03-30T03:43:03,42.805,6.029,0.04,0.015,-0.007,104.0,117.0,103.0,13.3,1505.3,327.5,-0.7,1.8,2470.262,13.32,0.042,69.4
2020-03-30T03:46:03,42.805,6.029,0.035,0.019,-0.068,105.0,120.0,101.0,13.4,1505.3,323.5,-0.7,1.8,2470.261,13.32,0.039,61.5
2020-03-30T03:49:03,42.805,6.029,0.03,0.018,-0.028,103.0,116.0,101.0,13.3,1505.3,327.1,-0.7,1.8,2470.277,13.32,0.034,59.0
2020-03-30T03:52:03,42.805,6.029,0.044,0.031,-0.011,105.0,116.0,100.0,13.3,1505.3,324.1,-0.7,1.8,2470.238,13.32,0.053,54.8
2020-03-30T03:55:03,42.805,6.029,0.016,0.016,0.01,105.0,114.0,102.0,13.4,1505.3,327.9,-0.7,1.8,2470.261,13.32,0.022,45.0
2020-03-30T03:58:03,42.805,6.029,0.036,0.029,-0.009,104.0,115.0,100.0,13.4,1505.3,326.8,-0.7,1.8,2470.275,13.32,0.046,51.1
2020-03-30T04:04:03,42.805,6.029,0.021,0.02,-0.046,105.0,119.0,102.0,13.3,1505.2,325.7,-0.7,1.9,2470.316,13.3,0.028,46.4
2020-03-30T04:07:03,42.805,6.029,0.049,0.027,-0.035,105.0,118.0,102.0,13.4,1505.3,326.9,-0.7,1.9,2470.256,13.31,0.055,61.1
2020-03-30T04:10:03,42.805,6.029,0.029,0.028,0.005,104.0,117.0,102.0,13.3,1505.3,327.3,-0.7,1.8,2470.229,13.31,0.04,46.0
2020-03-30T04:13:03,42.805,6.029,0.027,0.012,-0.021,105.0,115.0,103.0,13.3,1505.3,326.6,-0.7,1.8,2470.256,13.32,0.029,66.0
2020-03-30T04:16:03,42.805,6.029,0.052,0.03,-0.041,104.0,116.0,101.0,13.4,1505.3,326.8,-0.7,1.8,2470.242,13.32,0.06,60.0
2020-03-30T04:19:03,42.805,6.029,0.043,0.007,-0.047,106.0,115.0,102.0,13.3,1505.3,327.6,-0.7,1.8,2470.263,13.32,0.043,80.8
2020-03-30T04:22:03,42.805,6.029,0.059,0.014,-0.047,105.0,116.0,102.0,13.3,1505.3,323.4,-0.7,1.8,2470.268,13.32,0.06,76.7
2020-03-30T04:25:03,42.805,6.029,0.02,0.021,-0.022,105.0,118.0,101.0,13.4,1505.3,324.8,-0.7,1.8,2470.262,13.32,0.028,43.6
2020-03-30T04:28:03,42.805,6.029,0.033,0.025,-0.046,105.0,115.0,101.0,13.4,1505.3,327.9,-0.7,1.8,2470.285,13.32,0.041,52.9
2020-03-30T04:31:03,42.805,6.029,0.064,0.009,-0.015,104.0,117.0,101.0,13.4,1505.3,328.1,-0.7,1.8,2470.28,13.32,0.064,82.0
2020-03-30T04:34:03,42.805,6.029,0.02,0.021,-0.041,104.0,118.0,103.0,13.4,1505.3,327.7,-0.7,1.8,2470.25,13.32,0.028,43.6
2020-03-30T04:37:03,42.805,6.029,0.044,0.012,-0.034,104.0,118.0,101.0,13.4,1505.3,328.2,-0.7,1.8,2470.212,13.32,0.045,74.7
2020-03-30T04:40:03,42.805,6.029,0.025,0.022,-0.021,106.0,117.0,103.0,13.4,1505.3,327.6,-0.8,1.8,2470.264,13.32,0.033,48.7
2020-03-30T04:43:03,42.805,6.029,0.027,0.011,-0.034,104.0,115.0,101.0,13.4,1505.3,327.2,-0.7,1.9,2470.214,13.32,0.029,67.8
2020-03-30T04:46:03,42.805,6.029,0.026,0.028,-0.017,104.0,118.0,101.0,13.4,1505.3,328.0,-0.7,1.8,2470.231,13.32,0.038,42.9
2020-03-30T04:49:03,42.805,6.029,0.038,0.024,-0.021,103.0,116.0,101.0,13.4,1505.3,328.3,-0.7,1.8,2470.196,13.32,0.044,57.7
2020-03-30T04:52:03,42.805,6.029,0.051,0.03,-0.025,105.0,112.0,101.0,13.4,1505.3,328.0,-0.7,1.8,2470.27,13.32,0.059,59.5
2020-03-30T04:55:03,42.805,6.029,0.055,0.003,-0.01,105.0,117.0,102.0,13.4,1505.3,327.9,-0.7,1.8,2470.227,13.32,0.055,86.9
2020-03-30T04:58:03,42.805,6.029,0.046,0.034,0.001,104.0,114.0,101.0,13.3,1505.3,328.1,-0.7,1.8,2470.261,13.32,0.057,53.5
2020-03-30T05:04:03,42.805,6.029,0.03,0.008,-0.017,104.0,114.0,101.0,13.3,1505.2,324.9,-0.7,1.8,2470.233,13.3,0.031,75.1
2020-03-30T05:07:03,42.805,6.029,0.028,0.017,-0.046,104.0,114.0,101.0,13.4,1505.3,324.5,-0.7,1.8,2470.269,13.31,0.032,58.7
2020-03-30T05:10:03,42.805,6.029,0.054,0.04,0.011,104.0,118.0,102.0,13.4,1505.3,323.0,-0.7,1.8,2470.23,13.31,0.067,53.5
2020-03-30T05:13:03,42.805,6.029,0.016,0.017,-0.008,104.0,115.0,101.0,13.4,1505.3,323.8,-0.7,1.8,2470.242,13.32,0.023,43.3
2020-03-30T05:16:03,42.805,6.029,0.027,0.007,-0.012,104.0,114.0,101.0,13.3,1505.3,326.6,-0.7,1.8,2470.266,13.32,0.027,75.5
2020-03-30T05:19:03,42.805,6.029,0.035,0.02,-0.026,105.0,116.0,103.0,13.4,1505.3,325.1,-0.7,1.8,2470.239,13.32,0.04,60.3
2020-03-30T05:22:03,42.805,6.029,0.043,0.019,-0.022,105.0,114.0,102.0,13.4,1505.3,326.0,-0.7,1.8,2470.219,13.32,0.047,66.2
2020-03-30T05:25:03,42.805,6.029,0.044,0.028,-0.009,103.0,117.0,100.0,13.4,1505.3,323.2,-0.7,1.8,2470.28,13.32,0.052,57.5
2020-03-30T05:28:03,42.805,6.029,0.033,0.022,-0.029,104.0,116.0,102.0,13.4,1505.3,324.9,-0.7,1.8,2470.249,13.32,0.039,56.3
2020-03-30T05:31:03,42.805,6.029,0.044,0.015,-0.003,105.0,117.0,102.0,13.4,1505.3,326.7,-0.7,1.8,2470.209,13.32,0.046,71.2
2020-03-30T05:34:03,42.805,6.029,0.042,0.003,-0.022,104.0,116.0,101.0,13.4,1505.3,324.0,-0.7,1.8,2470.232,13.32,0.042,85.9
2020-03-30T05:37:03,42.805,6.029,0.036,0.018,-0.028,106.0,116.0,100.0,13.4,1505.3,327.4,-0.7,1.8,2470.238,13.32,0.04,63.4
2020-03-30T05:40:03,42.805,6.029,0.047,0.02,0.017,105.0,117.0,102.0,13.4,1505.3,325.0,-0.7,1.8,2470.253,13.32,0.051,67.0
2020-03-30T05:43:03,42.805,6.029,0.037,0.007,-0.028,104.0,116.0,101.0,13.4,1505.3,326.7,-0.7,1.8,2470.268,13.32,0.037,79.3
2020-03-30T05:46:03,42.805,6.029,0.016,-0.006,-0.018,104.0,114.0,101.0,13.4,1505.3,326.2,-0.7,1.9,2470.227,13.32,0.017,110.6
2020-03-30T05:49:03,42.805,6.029,0.019,0.017,-0.012,105.0,113.0,103.0,13.4,1505.3,328.3,-0.7,1.8,2470.221,13.32,0.025,48.2
2020-03-30T05:52:03,42.805,6.029,0.031,0.021,-0.02,103.0,119.0,102.0,13.4,1505.3,325.7,-0.7,1.8,2470.277,13.32,0.037,55.9
2020-03-30T05:55:03,42.805,6.029,0.034,0.011,-0.058,104.0,119.0,101.0,13.3,1505.3,327.3,-0.7,1.8,2470.192,13.32,0.035,72.1
2020-03-30T05:58:03,42.805,6.029,0.041,0.0,-0.044,102.0,117.0,103.0,13.4,1505.3,325.5,-0.7,1.9,2470.276,13.32,0.041,90.0
2020-03-30T06:04:03,42.805,6.029,0.04,0.019,0.014,103.0,117.0,101.0,13.3,1505.2,325.9,-0.8,1.8,2470.324,13.3,0.044,64.6
2020-03-30T06:07:03,42.805,6.029,0.025,0.019,0.0,104.0,116.0,102.0,13.3,1505.3,326.0,-0.7,1.9,2470.252,13.31,0.031,52.8
2020-03-30T06:10:03,42.805,6.029,0.023,0.025,-0.041,104.0,114.0,101.0,13.4,1505.3,325.2,-0.7,1.8,2470.262,13.31,0.033,42.6
2020-03-30T06:13:03,42.805,6.029,0.042,0.002,-0.003,105.0,116.0,101.0,13.4,1505.3,323.9,-0.7,1.8,2470.271,13.32,0.042,87.3
2020-03-30T06:16:03,42.805,6.029,0.033,0.011,-0.004,104.0,115.0,102.0,13.4,1505.3,326.5,-0.7,1.8,2470.28,13.32,0.034,71.6
2020-03-30T06:19:03,42.805,6.029,0.037,0.012,-0.016,104.0,114.0,102.0,13.4,1505.3,324.2,-0.7,1.8,2470.242,13.32,0.038,72.0
2020-03-30T06:22:03,42.805,6.029,0.042,0.009,-0.025,105.0,117.0,101.0,13.4,1505.3,328.5,-0.7,1.8,2470.28,13.32,0.042,77.9
2020-03-30T06:25:03,42.805,6.029,0.037,0.025,-0.039,104.0,119.0,101.0,13.4,1505.3,327.3,-0.7,1.8,2470.264,13.32,0.044,56.0
2020-03-30T06:28:03,42.805,6.029,0.02,0.021,-0.021,105.0,118.0,101.0,13.3,1505.3,324.1,-0.7,1.8,2470.266,13.32,0.028,43.6
2020-03-30T06:31:03,42.805,6.029,0.055,0.026,-0.003,104.0,117.0,102.0,13.4,1505.3,327.5,-0.7,1.8,2470.247,13.32,0.06,64.7
2020-03-30T06:34:03,42.805,6.029,0.032,0.024,-0.021,103.0,117.0,101.0,13.4,1505.3,326.3,-0.7,1.8,2470.228,13.32,0.04,53.1
2020-03-30T06:37:03,42.805,6.029,0.022,0.03,-0.028,106.0,117.0,101.0,13.4,1505.3,327.1,-0.7,1.8,2470.281,13.32,0.037,36.3
2020-03-30T06:40:03,42.805,6.029,0.034,0.022,-0.01,105.0,119.0,99.0,13.4,1505.3,327.8,-0.7,1.8,2470.281,13.32,0.04,57.1
2020-03-30T06:43:03,42.805,6.029,0.014,0.016,-0.041,105.0,120.0,102.0,13.4,1505.3,326.7,-0.7,1.8,2470.263,13.32,0.021,41.2
2020-03-30T06:46:03,42.805,6.029,0.029,0.02,-0.037,105.0,119.0,101.0,13.4,1505.3,327.7,-0.7,1.8,2470.232,13.32,0.035,55.4
2020-03-30T06:49:03,42.805,6.029,0.026,0.02,-0.023,104.0,117.0,102.0,13.3,1505.3,327.8,-0.7,1.9,2470.238,13.32,0.032,52.4
2020-03-30T06:52:03,42.805,6.029,0.026,0.018,-0.013,105.0,117.0,102.0,13.4,1505.3,328.0,-0.7,1.8,2470.263,13.32,0.031,55.3
2020-03-30T06:55:03,42.805,6.029,0.007,0.019,-0.037,104.0,121.0,102.0,13.4,1505.3,324.8,-0.7,1.8,2470.258,13.32,0.02,20.2
2020-03-30T06:58:03,42.805,6.029,0.03,0.02,-0.045,102.0,120.0,102.0,13.4,1505.3,324.4,-0.7,1.8,2470.274,13.32,0.036,56.3
2020-03-30T07:04:03,42.805,6.029,0.018,0.02,-0.037,105.0,117.0,100.0,13.4,1505.2,327.7,-0.7,1.8,2470.344,13.3,0.026,42.0
2020-03-30T07:07:03,42.805,6.029,0.022,0.041,-0.062,104.0,118.0,100.0,13.4,1505.3,327.1,-0.7,1.8,2470.295,13.31,0.046,28.2
2020-03-30T07:10:03,42.805,6.029,0.047,0.024,-0.012,104.0,117.0,101.0,13.4,1505.3,327.7,-0.7,1.8,2470.291,13.31,0.052,63.0
2020-03-30T07:13:03,42.805,6.029,0.017,0.01,-0.084,105.0,119.0,101.0,13.4,1505.3,326.9,-0.7,1.8,2470.279,13.32,0.019,59.5
2020-03-30T07:16:03,42.805,6.029,0.025,0.018,-0.038,106.0,119.0,101.0,13.3,1505.3,325.0,-0.7,1.8,2470.239,13.32,0.03,54.2
2020-03-30T07:19:03,42.805,6.029,0.02,0.027,-0.024,104.0,120.0,102.0,13.4,1505.3,327.3,-0.7,1.9,2470.309,13.32,0.033,36.5
2020-03-30T07:22:03,42.805,6.029,0.029,0.013,-0.041,103.0,116.0,102.0,13.4,1505.3,324.3,-0.7,1.8,2470.324,13.32,0.031,65.9
2020-03-30T07:25:03,42.805,6.029,0.041,0.013,-0.006,105.0,116.0,102.0,13.4,1505.3,326.8,-0.7,1.8,2470.263,13.32,0.043,72.4
2020-03-30T07:28:03,42.805,6.029,0.024,0.018,-0.013,106.0,119.0,103.0,13.4,1505.3,327.1,-0.7,1.8,2470.231,13.32,0.03,53.1
2020-03-30T07:31:03,42.805,6.029,0.041,0.032,-0.002,105.0,115.0,101.0,13.3,1505.3,324.9,-0.7,1.8,2470.276,13.32,0.052,52.0
2020-03-30T07:34:03,42.805,6.029,0.052,0.009,-0.034,106.0,116.0,100.0,13.4,1505.3,323.6,-0.7,1.8,2470.281,13.32,0.052,80.2
2020-03-30T07:37:03,42.805,6.029,0.04,0.022,0.019,104.0,114.0,103.0,13.4,1505.3,324.8,-0.7,1.8,2470.273,13.32,0.045,61.2
2020-03-30T07:40:03,42.805,6.029,0.055,0.014,0.001,104.0,117.0,102.0,13.3,1505.3,327.0,-0.7,1.8,2470.278,13.32,0.056,75.7
2020-03-30T07:43:03,42.805,6.029,0.051,0.028,-0.003,105.0,118.0,101.0,13.4,1505.3,324.3,-0.7,1.8,2470.297,13.32,0.058,61.2
2020-03-30T07:46:03,42.805,6.029,0.028,0.007,-0.02,104.0,116.0,102.0,13.3,1505.3,326.8,-0.7,1.8,2470.297,13.32,0.028,76.0
2020-03-30T07:49:03,42.805,6.029,0.036,0.013,-0.006,104.0,116.0,102.0,13.3,1505.3,324.3,-0.7,1.8,2470.269,13.32,0.038,70.1
2020-03-30T07:52:03,42.805,6.029,0.03,0.022,-0.022,105.0,116.0,102.0,13.3,1505.3,323.1,-0.7,1.8,2470.31,13.32,0.037,53.7
2020-03-30T07:55:03,42.805,6.029,0.051,-0.001,-0.013,105.0,115.0,102.0,13.4,1505.3,324.8,-0.7,1.8,2470.272,13.32,0.051,91.1
2020-03-30T07:58:03,42.805,6.029,0.058,0.008,0.014,105.0,116.0,101.0,13.4,1505.3,324.1,-0.7,1.8,2470.262,13.32,0.058,82.2
2020-03-30T08:04:03,42.805,6.029,0.061,0.021,-0.032,105.0,112.0,101.0,13.3,1505.2,325.0,-0.8,1.8,2470.302,13.3,0.064,71.0
2020-03-30T08:07:03,42.805,6.029,0.026,0.006,-0.057,105.0,113.0,102.0,13.3,1505.3,326.5,-0.7,1.8,2470.293,13.31,0.026,77.0
2020-03-30T08:10:03,42.805,6.029,0.028,0.027,-0.027,103.0,113.0,102.0,13.4,1505.3,328.3,-0.7,1.8,2470.363,13.32,0.038,46.0
2020-03-30T08:13:03,42.805,6.029,0.032,0.018,-0.033,103.0,114.0,101.0,13.4,1505.3,323.4,-0.7,1.8,2470.288,13.32,0.036,60.6
2020-03-30T08:16:03,42.805,6.029,0.047,0.015,-0.039,104.0,114.0,100.0,13.4,1505.3,324.0,-0.7,1.8,2470.309,13.32,0.049,72.3
2020-03-30T08:19:03,42.805,6.029,0.048,0.024,0.0,104.0,113.0,101.0,13.4,1505.3,325.0,-0.7,1.8,2470.353,13.32,0.053,63.4
2020-03-30T08:22:03,42.805,6.029,0.013,0.006,-0.045,103.0,114.0,102.0,13.4,1505.3,326.2,-0.7,1.8,2470.282,13.32,0.014,65.2
2020-03-30T08:25:03,42.805,6.029,0.038,0.019,-0.041,105.0,113.0,102.0,13.4,1505.3,326.1,-0.7,1.9,2470.281,13.32,0.042,63.4
2020-03-30T08:28:03,42.805,6.029,0.043,0.022,-0.016,105.0,113.0,102.0,13.4,1505.3,325.7,-0.7,1.8,2470.28,13.32,0.048,62.9
2020-03-30T08:31:03,42.805,6.029,0.062,0.012,-0.004,104.0,114.0,102.0,13.4,1505.3,323.7,-0.7,1.8,2470.316,13.32,0.063,79.0
2020-03-30T08:34:03,42.805,6.029,0.033,0.002,-0.035,104.0,114.0,101.0,13.3,1505.3,328.2,-0.7,1.8,2470.346,13.32,0.033,86.5
2020-03-30T08:37:03,42.805,6.029,0.034,0.017,-0.015,104.0,115.0,101.0,13.4,1505.3,327.0,-0.7,1.8,2470.299,13.32,0.038,63.4
2020-03-30T08:40:03,42.805,6.029,0.057,0.013,-0.002,104.0,116.0,102.0,13.4,1505.3,325.9,-0.7,1.9,2470.303,13.32,0.058,77.2
2020-03-30T08:43:03,42.805,6.029,0.025,0.008,-0.017,105.0,117.0,102.0,13.4,1505.3,326.5,-0.7,1.8,2470.313,13.32,0.026,72.3
2020-03-30T08:46:03,42.805,6.029,0.026,0.019,-0.054,104.0,116.0,102.0,13.3,1505.3,326.5,-0.7,1.8,2470.322,13.32,0.032,53.8
2020-03-30T08:49:03,42.805,6.029,0.025,0.018,-0.038,106.0,119.0,101.0,13.4,1505.3,325.9,-0.7,1.8,2470.34,13.32,0.03,54.2
2020-03-30T08:52:03,42.805,6.029,0.02,0.017,-0.036,105.0,117.0,101.0,13.4,1505.3,324.0,-0.7,1.8,2470.325,13.32,0.026,49.6
2020-03-30T08:55:03,42.805,6.029,0.039,0.028,-0.047,104.0,117.0,102.0,13.4,1505.3,327.3,-0.7,1.8,2470.318,13.32,0.048,54.3
2020-03-30T08:58:03,42.805,6.029,0.05,0.025,0.0,104.0,118.0,102.0,13.4,1505.3,324.1,-0.7,1.8,2470.319,13.32,0.055,63.4
2020-03-30T09:04:03,42.805,6.029,0.021,0.012,-0.02,104.0,115.0,103.0,13.4,1505.2,325.6,-0.7,1.8,2470.341,13.3,0.024,60.3
2020-03-30T09:07:03,42.805,6.029,0.033,0.019,-0.001,104.0,117.0,102.0,13.4,1505.3,325.6,-0.7,1.8,2470.31,13.31,0.038,60.1
2020-03-30T09:10:03,42.805,6.029,0.039,0.023,-0.033,104.0,118.0,101.0,13.3,1505.3,326.2,-0.7,1.9,2470.362,13.31,0.045,59.5
2020-03-30T09:13:03,42.805,6.029,0.029,0.032,-0.022,104.0,117.0,102.0,13.3,1505.3,322.7,-0.7,1.8,2470.372,13.32,0.043,42.2
2020-03-30T09:16:03,42.805,6.029,0.038,0.044,-0.033,105.0,120.0,101.0,13.4,1505.3,325.1,-0.7,1.9,2470.331,13.32,0.058,40.8
2020-03-30T09:19:03,42.805,6.029,0.039,0.011,-0.014,104.0,120.0,102.0,13.4,1505.3,325.3,-0.7,1.8,2470.38,13.32,0.04,74.3
2020-03-30T09:22:03,42.805,6.029,0.018,0.008,-0.02,105.0,117.0,102.0,13.4,1505.3,326.2,-0.7,1.8,2470.307,13.32,0.019,66.0
2020-03-30T09:25:03,42.805,6.029,0.009,0.035,-0.049,105.0,119.0,101.0,13.4,1505.3,326.4,-0.7,1.8,2470.284,13.32,0.036,14.4
2020-03-30T09:28:03,42.805,6.029,0.0,0.029,-0.032,104.0,120.0,101.0,13.4,1505.3,328.0,-0.7,1.8,2470.341,13.32,0.028,0.0
2020-03-30T09:31:03,42.805,6.029,0.026,0.026,-0.026,104.0,121.0,101.0,13.4,1505.3,324.6,-0.7,1.8,2470.35,13.32,0.036,45.0
2020-03-30T09:34:03,42.805,6.029,0.029,0.031,-0.051,105.0,121.0,100.0,13.4,1505.3,324.6,-0.7,1.8,2470.343,13.32,0.042,43.1
2020-03-30T09:37:03,42.805,6.029,0.001,0.005,-0.052,104.0,121.0,102.0,13.3,1505.3,324.3,-0.7,1.8,2470.322,13.32,0.005,11.3
2020-03-30T09:40:03,42.805,6.029,0.0,0.017,-0.086,105.0,123.0,100.0,13.4,1505.3,326.1,-0.7,1.8,2470.386,13.32,0.017,0.0
2020-03-30T09:43:03,42.805,6.029,0.01,0.016,-0.034,104.0,121.0,101.0,13.4,1505.3,326.8,-0.7,1.8,2470.387,13.32,0.018,32.0
2020-03-30T09:46:03,42.805,6.029,0.025,0.01,-0.043,104.0,121.0,102.0,13.3,1505.3,325.7,-0.7,1.8,2470.297,13.32,0.026,68.2
2020-03-30T09:49:03,42.805,6.029,0.051,0.026,0.005,103.0,120.0,101.0,13.3,1505.3,324.9,-0.7,1.8,2470.326,13.32,0.057,63.0
2020-03-30T09:52:03,42.805,6.029,0.021,0.032,-0.027,104.0,119.0,101.0,13.4,1505.3,324.2,-0.7,1.8,2470.312,13.32,0.038,33.3
2020-03-30T09:55:03,42.805,6.029,0.014,0.031,-0.046,104.0,120.0,102.0,13.4,1505.3,328.0,-0.7,1.8,2470.339,13.32,0.034,24.3
2020-03-30T09:58:03,42.805,6.029,0.024,0.01,-0.036,103.0,118.0,103.0,13.4,1505.3,328.3,-0.7,1.8,2470.369,13.32,0.026,67.4
2020-03-30T10:04:03,42.805,6.029,0.02,0.032,-0.029,106.0,121.0,100.0,13.4,1505.2,323.0,-0.7,1.8,2470.392,13.3,0.037,32.0
2020-03-30T10:07:03,42.805,6.029,0.01,0.016,-0.004,103.0,121.0,101.0,13.4,1505.3,324.4,-0.7,1.8,2470.373,13.31,0.018,32.0